Home > Time Zones > World Clock > Weather > Nigeria > Uyo > Past weeks

Flag for Nigeria Weather past 2 weeks in Uyo, Nigeria

Now
81 °F

Fog.


Feels Like: 87 °F
Forecast: 78 / 96 °F
Wind: 6 mph from Southwest

Location: Malabo/Fernando Poo

Current Time: Dec 29, 2014 at 9:58:13 AM

Latest Report: Dec 29, 2014 at 9:00 AM


Visibility: 3 mi

Pressure: 29.95 "Hg

Humidity: 89%

Dew point: 77 °F

Location of UyoLocation

Historic Weather in Uyo — Graph

°F

Uyo temperature yesterday

Maximum temperature yesterday: 88 °F (at 11:00 AM)
Minimum temperature yesterday: 77 °F (at 7:00 AM)
Average temperature yesterday: 81 °F

Past Weeks' High & Low Weather Summary

 TemperatureHumidityPressure
High88 °F (Dec 21, 11:00 AM)100% (Dec 20, 4:00 AM)32.84 "Hg (Dec 20, 4:00 AM)
Low72 °F (Dec 29, 7:00 AM)55% (Dec 15, 12:00 PM)29.80 "Hg (Dec 14, 3:00 PM)
Average81 °F79%29.89 "Hg
* Reported Dec 14 9:00 AM — Dec 29 9:00 AM, Uyo, Weather by CustomWeather, © 2014

Note: Actual official high and low records may vary slightly from our data, if they occured in-between our weather recording intervals... More about our weather records

Advertising

Uyo weather history for previous 24 hours

 ConditionsComfort  
Time TempWeatherWind HumidityBarometerVisibility
9:00 AM
Dec 29
81 °FFog.6 mph89%29.95 "Hg3 mi
7:00 AM72 °FFog.6 mph88%29.83 "Hg3 mi
6:00 AM75 °FPassing clouds.N/A89%29.83 "Hg4 mi
5:00 AM75 °FPassing clouds.No wind89%29.83 "Hg4 mi
4:00 AM75 °FPassing clouds.5 mph83%29.83 "Hg4 mi
1:00 AM77 °FPassing clouds.No wind79%29.86 "Hg4 mi
12:00 AM77 °FPassing clouds.No wind79%29.86 "Hg4 mi
11:00 PM
Dec 28
77 °FFog.5 mph83%29.89 "Hg3 mi
9:00 PM81 °FFog.5 mph79%29.89 "Hg2 mi
8:00 PM82 °FFog.5 mph79%29.86 "Hg2 mi
7:00 PM82 °FHaze.7 mph70%29.86 "Hg2 mi
6:00 PM82 °FHaze.5 mph70%29.83 "Hg2 mi
5:00 PM84 °FHaze.6 mph70%29.83 "Hg2 mi
4:00 PM86 °FHaze.3 mph66%29.83 "Hg2 mi
12:00 PM86 °FPassing clouds.6 mph79%29.89 "Hg4 mi
11:00 AM88 °FPassing clouds.3 mph79%29.92 "Hg4 mi
10:00 AM86 °FPassing clouds.3 mph79%29.92 "Hg4 mi
9:00 AM81 °FPassing clouds.No wind79%29.92 "Hg4 mi
Weather by CustomWeather, © 2014

See weather overviewHow to use our weather pages